N117EZ TISX-TJSJ

Flight info

Callsign N117EZ
Flight time 0h 30m
Altitude 12000
Route HMLTN9 CHAKA DCT SNGRA DCT REKUA DCT SJU
Aircraft BE20/M-SDFGRWY/LB1

Departure

Time 2026-04-22 23:12
Airport Henry E. Rohlsen Airport (TISX)

Arrival

Time 2026-04-22 23:43
Airport Luis Munoz Marin International Airport (TJSJ)
Time Latitude Longitude Altitude Speed Heading
2026-04-22 22:49 17.69917 -64.79983 72 ft 0 kts 266°
2026-04-22 22:52 17.69917 -64.79980 72 ft 0 kts 266°
2026-04-22 22:52 17.69917 -64.79979 72 ft 0 kts 266°
2026-04-22 23:03 17.69917 -64.79975 72 ft 0 kts 264°
2026-04-22 23:03 17.69917 -64.79974 72 ft 0 kts 265°
2026-04-22 23:04 17.69918 -64.79972 72 ft 2 kts 266°
2026-04-22 23:04 17.69919 -64.79958 67 ft 2 kts 266°
2026-04-22 23:04 17.69919 -64.79944 72 ft 2 kts 266°
2026-04-22 23:04 17.69920 -64.79937 67 ft 0 kts 268°
2026-04-22 23:05 17.69920 -64.79936 67 ft 1 kts 267°
2026-04-22 23:05 17.69922 -64.79942 67 ft 4 kts 309°
2026-04-22 23:06 17.69929 -64.79945 72 ft 1 kts 349°
2026-04-22 23:06 17.69942 -64.79948 70 ft 0 kts 348°
2026-04-22 23:06 17.69936 -64.79967 72 ft 10 kts 242°
2026-04-22 23:06 17.69966 -64.80024 71 ft 12 kts 248°
2026-04-22 23:07 17.69974 -64.79999 71 ft 4 kts 39°
2026-04-22 23:07 17.70010 -64.79994 71 ft 5 kts
2026-04-22 23:07 17.70047 -64.80036 71 ft 14 kts 264°
2026-04-22 23:07 17.70030 -64.80175 69 ft 20 kts 262°
2026-04-22 23:08 17.70011 -64.80330 71 ft 22 kts 264°
2026-04-22 23:08 17.69995 -64.80497 71 ft 25 kts 263°
2026-04-22 23:08 17.69988 -64.80644 68 ft 16 kts 260°
2026-04-22 23:08 17.69969 -64.80780 72 ft 21 kts 263°
2026-04-22 23:09 17.69949 -64.80949 72 ft 26 kts 263°
2026-04-22 23:09 17.69932 -64.81095 67 ft 18 kts 263°
2026-04-22 23:09 17.69917 -64.81243 68 ft 24 kts 266°
2026-04-22 23:09 17.69896 -64.81442 72 ft 31 kts 261°
2026-04-22 23:10 17.69908 -64.81604 71 ft 17 kts 317°
2026-04-22 23:10 17.69928 -64.81612 71 ft 0 kts
2026-04-22 23:11 17.69929 -64.81612 71 ft 0 kts
2026-04-22 23:11 17.69985 -64.81612 71 ft 12 kts 357°
2026-04-22 23:11 17.70021 -64.81567 68 ft 0 kts 76°
2026-04-22 23:11 17.70029 -64.81516 71 ft 29 kts 84°
2026-04-22 23:12 17.70069 -64.81106 74 ft 83 kts 83°
2026-04-22 23:12 17.70153 -64.80337 88 ft 125 kts 83°
2026-04-22 23:12 17.70246 -64.79381 430 ft 136 kts 85°
2026-04-22 23:12 17.70268 -64.78417 933 ft 127 kts 88°
2026-04-22 23:13 17.70297 -64.77480 1389 ft 129 kts 84°
2026-04-22 23:13 17.70554 -64.76598 1866 ft 126 kts 63°
2026-04-22 23:13 17.70918 -64.75756 2402 ft 127 kts 63°
2026-04-22 23:13 17.71285 -64.74925 2918 ft 128 kts 62°
2026-04-22 23:14 17.71664 -64.74075 3399 ft 129 kts 62°
2026-04-22 23:14 17.72046 -64.73218 3856 ft 130 kts 62°
2026-04-22 23:14 17.72444 -64.72361 4199 ft 131 kts 54°
2026-04-22 23:14 17.73138 -64.71775 4564 ft 130 kts 22°
2026-04-22 23:15 17.74033 -64.71678 4942 ft 133 kts 351°
2026-04-22 23:15 17.74857 -64.72143 5296 ft 140 kts 316°
2026-04-22 23:15 17.75453 -64.72974 5633 ft 144 kts 310°
2026-04-22 23:15 17.76048 -64.73826 6014 ft 145 kts 310°
2026-04-22 23:16 17.76645 -64.74690 6392 ft 147 kts 310°
2026-04-22 23:16 17.77246 -64.75561 6748 ft 148 kts 309°
2026-04-22 23:16 17.77851 -64.76433 7116 ft 148 kts 310°
2026-04-22 23:16 17.78454 -64.77305 7492 ft 148 kts 310°
2026-04-22 23:17 17.79059 -64.78182 7863 ft 149 kts 309°
2026-04-22 23:17 17.79694 -64.79096 8021 ft 167 kts 310°
2026-04-22 23:17 17.80429 -64.80155 8032 ft 191 kts 309°
2026-04-22 23:17 17.81235 -64.81322 8031 ft 208 kts 308°
2026-04-22 23:18 17.82111 -64.82593 8027 ft 221 kts 308°
2026-04-22 23:18 17.83028 -64.83923 8024 ft 229 kts 308°
2026-04-22 23:18 17.83971 -64.85288 8021 ft 234 kts 308°
2026-04-22 23:18 17.84935 -64.86685 8020 ft 238 kts 308°
2026-04-22 23:19 17.85910 -64.88098 8020 ft 239 kts 308°
2026-04-22 23:19 17.86889 -64.89516 8019 ft 240 kts 308°
2026-04-22 23:19 17.87872 -64.90941 8016 ft 241 kts 308°
2026-04-22 23:19 17.88857 -64.92369 8013 ft 241 kts 308°
2026-04-22 23:20 17.89841 -64.93795 8010 ft 241 kts 308°
2026-04-22 23:20 17.90825 -64.95222 8009 ft 241 kts 308°
2026-04-22 23:20 17.91810 -64.96649 8008 ft 241 kts 308°
2026-04-22 23:20 17.92793 -64.98076 8012 ft 241 kts 307°
2026-04-22 23:21 17.93779 -64.99507 8013 ft 241 kts 308°
2026-04-22 23:21 17.94746 -65.00911 8012 ft 241 kts 307°
2026-04-22 23:21 17.95742 -65.02356 8012 ft 241 kts 308°
2026-04-22 23:21 17.96713 -65.03765 8011 ft 241 kts 308°
2026-04-22 23:22 17.97698 -65.05195 8012 ft 241 kts 308°
2026-04-22 23:22 17.98679 -65.06622 8013 ft 241 kts 308°
2026-04-22 23:22 17.99661 -65.08049 8013 ft 241 kts 307°
2026-04-22 23:22 18.00644 -65.09477 8013 ft 241 kts 308°
2026-04-22 23:23 18.01625 -65.10902 8009 ft 240 kts 308°
2026-04-22 23:23 18.02604 -65.12324 8000 ft 240 kts 309°
2026-04-22 23:23 18.03582 -65.13747 8001 ft 240 kts 307°
2026-04-22 23:23 18.04560 -65.15171 8000 ft 240 kts 307°
2026-04-22 23:24 18.05540 -65.16595 8000 ft 240 kts 309°
2026-04-22 23:24 18.06517 -65.18017 8000 ft 240 kts 308°
2026-04-22 23:24 18.07497 -65.19442 8000 ft 241 kts 307°
2026-04-22 23:24 18.08478 -65.20871 8000 ft 241 kts 307°
2026-04-22 23:25 18.09459 -65.22301 7999 ft 241 kts 308°
2026-04-22 23:25 18.10439 -65.23727 7997 ft 241 kts 308°
2026-04-22 23:25 18.11424 -65.25161 7997 ft 241 kts 307°
2026-04-22 23:25 18.12407 -65.26593 7997 ft 241 kts 307°
2026-04-22 23:26 18.13390 -65.28025 7993 ft 241 kts 308°
2026-04-22 23:26 18.14369 -65.29453 7993 ft 241 kts 308°
2026-04-22 23:26 18.15339 -65.30868 7992 ft 240 kts 308°
2026-04-22 23:26 18.16329 -65.32310 7993 ft 240 kts 307°
2026-04-22 23:27 18.17295 -65.33720 7994 ft 240 kts 308°
2026-04-22 23:27 18.18272 -65.35147 7994 ft 240 kts 308°
2026-04-22 23:27 18.19251 -65.36573 7997 ft 240 kts 307°
2026-04-22 23:27 18.20226 -65.37997 7946 ft 239 kts 307°
2026-04-22 23:28 18.21202 -65.39422 7703 ft 240 kts 307°
2026-04-22 23:28 18.22173 -65.40840 7499 ft 238 kts 308°
2026-04-22 23:28 18.23139 -65.42250 7246 ft 237 kts 307°
2026-04-22 23:28 18.24099 -65.43653 6935 ft 237 kts 308°
2026-04-22 23:29 18.25059 -65.45056 6654 ft 235 kts 308°
2026-04-22 23:29 18.26010 -65.46447 6386 ft 233 kts 308°
2026-04-22 23:29 18.26958 -65.47833 6092 ft 232 kts 308°
2026-04-22 23:29 18.27897 -65.49204 5956 ft 229 kts 308°
2026-04-22 23:30 18.28841 -65.50584 5965 ft 235 kts 307°
2026-04-22 23:30 18.29804 -65.51992 5965 ft 238 kts 308°
2026-04-22 23:30 18.30777 -65.53416 5962 ft 241 kts 307°
2026-04-22 23:30 18.31744 -65.54832 5970 ft 242 kts 307°
2026-04-22 23:31 18.32729 -65.56274 5964 ft 243 kts 307°
2026-04-22 23:31 18.33718 -65.57720 5960 ft 244 kts 307°
2026-04-22 23:31 18.34709 -65.59172 5960 ft 244 kts 307°
2026-04-22 23:31 18.35702 -65.60627 5966 ft 245 kts 308°
2026-04-22 23:32 18.36693 -65.62083 5967 ft 243 kts 306°
2026-04-22 23:32 18.37423 -65.63678 5969 ft 244 kts 288°
2026-04-22 23:32 18.37794 -65.65421 5970 ft 244 kts 284°
2026-04-22 23:32 18.38147 -65.67162 5970 ft 244 kts 284°
2026-04-22 23:33 18.38505 -65.68913 5971 ft 243 kts 284°
2026-04-22 23:33 18.38860 -65.70649 5967 ft 242 kts 284°
2026-04-22 23:33 18.39213 -65.72376 5972 ft 241 kts 284°
2026-04-22 23:33 18.39563 -65.74098 5966 ft 240 kts 284°
2026-04-22 23:34 18.39900 -65.75817 5971 ft 239 kts 280°
2026-04-22 23:34 18.39854 -65.77571 5976 ft 241 kts 261°
2026-04-22 23:34 18.39528 -65.79305 5968 ft 243 kts 261°
2026-04-22 23:34 18.39201 -65.81049 5977 ft 244 kts 261°
2026-04-22 23:35 18.38878 -65.82801 5973 ft 243 kts 261°
2026-04-22 23:35 18.38565 -65.84521 5897 ft 243 kts 261°
2026-04-22 23:35 18.38237 -65.86291 5776 ft 243 kts 261°
2026-04-22 23:35 18.37912 -65.88035 5662 ft 242 kts 261°
2026-04-22 23:36 18.37579 -65.89750 5521 ft 242 kts 261°
2026-04-22 23:36 18.37388 -65.91526 5388 ft 240 kts 269°
2026-04-22 23:36 18.37338 -65.93249 5137 ft 240 kts 270°
2026-04-22 23:36 18.37315 -65.94978 4962 ft 236 kts 271°
2026-04-22 23:37 18.37305 -65.96715 4734 ft 235 kts 271°
2026-04-22 23:37 18.37289 -65.98429 4478 ft 235 kts 271°
2026-04-22 23:37 18.37280 -66.00153 4206 ft 236 kts 272°
2026-04-22 23:37 18.37259 -66.01879 3953 ft 235 kts 271°
2026-04-22 23:38 18.37244 -66.03603 3626 ft 236 kts 271°
2026-04-22 23:38 18.37227 -66.05342 3272 ft 237 kts 271°
2026-04-22 23:38 18.37233 -66.07066 2946 ft 234 kts 275°
2026-04-22 23:38 18.37538 -66.08743 2586 ft 232 kts 291°
2026-04-22 23:39 18.38351 -66.10149 2469 ft 219 kts 313°
2026-04-22 23:39 18.39364 -66.11298 2467 ft 210 kts 316°
2026-04-22 23:39 18.40423 -66.12277 2455 ft 194 kts 336°
2026-04-22 23:39 18.41663 -66.12423 2426 ft 175 kts 17°
2026-04-22 23:40 18.42628 -66.11698 2160 ft 174 kts 55°
2026-04-22 23:40 18.43238 -66.10602 1827 ft 171 kts 63°
2026-04-22 23:40 18.43538 -66.09431 1471 ft 159 kts 84°
2026-04-22 23:40 18.43507 -66.08339 1282 ft 146 kts 93°
2026-04-22 23:41 18.43407 -66.07399 1167 ft 118 kts 94°
2026-04-22 23:41 18.43374 -66.06552 1031 ft 114 kts 87°
2026-04-22 23:41 18.43365 -66.05714 849 ft 115 kts 90°
2026-04-22 23:41 18.43343 -66.04878 719 ft 111 kts 90°
2026-04-22 23:42 18.43331 -66.04072 619 ft 109 kts 89°
2026-04-22 23:42 18.43334 -66.03261 514 ft 110 kts 85°
2026-04-22 23:42 18.43364 -66.02459 371 ft 110 kts 86°
2026-04-22 23:42 18.43381 -66.01664 183 ft 108 kts 89°
2026-04-22 23:43 18.43363 -66.00877 -17 ft 100 kts 91°
2026-04-22 23:43 18.43362 -66.00224 -40 ft 78 kts 89°
2026-04-22 23:43 18.43352 -65.99760 -35 ft 46 kts 89°
2026-04-22 23:43 18.43396 -65.99563 -33 ft 22 kts 22°
2026-04-22 23:44 18.43585 -65.99556 -28 ft 27 kts
2026-04-22 23:44 18.43697 -65.99529 -40 ft 15 kts 358°
2026-04-22 23:44 18.43712 -65.99570 -35 ft 8 kts 215°
2026-04-22 23:44 18.43697 -65.99574 -28 ft 0 kts 197°